星链-2495 (STARLINK-2495 )

导读

STARLINK-2495是美国SpaceX星链星座下的Starlink V1.5低轨通信卫星,于2021年4月29日发射入轨,属于星链第一代组网卫星。它重约295公斤,配备激光星间链路,可实现卫星间直连通信,依托相控阵天线提供高速宽带服务,帮助扩展全球网络覆盖,支持偏远地区、远洋海域的互联网接入,目前正常在轨运行,是全球最大卫星星座的组成部分。

Basic Information
目录编号:
48325
目录名称:
STARLINK-2495
国际标识:
2021-036BB
轨道中心:
EARTH
卫星名称:
星链-2495
卫星全名:
星链-2495 (STARLINK-2495 )
卫星状态:
在轨 (已飞行1954 天)
发射日期:
2021-04-29 UTC
国别 :
美国 (US)
星等 :
--
Orbit Information
数据来源 国际轨道数据 AOE轨道数据
星历时间 2026-09-04T00:31:52+0800
12小时前
查看轨道信息
2026-09-03T08:00:00+0800
1天前
查看轨道信息
半长轴 6848.857km 6848.833km
偏心率 0.0001098 0.0000901
轨道倾角 53.161° 53.161°
近地点辐角 86.506° 51.423°
升交点赤经 352.825° 356.034°
平近点角 273.607° 108.486°
近地点 469.967km 470.078km
远地点 471.473km 471.314km
周期 94.013分钟 94.012分钟
每日圈数 15.317068 15.31715
Detailed Information
固有亮度:
5
最大亮度:
2.5
卫星平台:
Starlink V1.0
覆盖范围:
全球
运营商:
太空探索技术公司
运营商所在国:
美国
制造商(研发单位):
太空探索技术公司
制造商所在国:
美国
使用方式:
暂无
Satellite Introduction
星链(Starlink)计划是由太空探索技术公司(SpaceX)提出的一个巨型低轨卫星互联网星座项目,计划在2019年至2024年间在太空搭建由约1.2万颗卫星组成的“星链”网络,其中1584颗将部署在地球上空550千米处的近地轨道,并从2020年开始工作。该卫星仍在工作。
2D Orbit Map
3D Orbit Map
Orbit Altitude Analysis Chart
Orbit Inclination Analysis Chart
Orbit Comprehensive Analysis Chart
View Comprehensive Chart